Year,Month,Day,Hour,Minute,Value (Times are PST for temperature in C)
2014,08,19,00,00,18.60
2014,08,19,00,01,18.60
2014,08,19,00,02,18.60
2014,08,19,00,03,18.60
2014,08,19,00,04,18.60
2014,08,19,00,05,18.60
2014,08,19,00,06,18.50
2014,08,19,00,07,18.50
2014,08,19,00,08,18.50
2014,08,19,00,09,18.40
2014,08,19,00,10,18.40
2014,08,19,00,11,18.30
2014,08,19,00,12,18.30
2014,08,19,00,13,18.20
2014,08,19,00,14,18.10
2014,08,19,00,15,18.10
2014,08,19,00,16,18.00
2014,08,19,00,17,18.00
2014,08,19,00,18,17.90
2014,08,19,00,19,17.90
2014,08,19,00,20,17.80
2014,08,19,00,21,17.80
2014,08,19,00,22,17.80
2014,08,19,00,23,17.80
2014,08,19,00,24,17.70
2014,08,19,00,25,17.70
2014,08,19,00,26,17.60
2014,08,19,00,27,17.60
2014,08,19,00,28,17.50
2014,08,19,00,29,17.50
2014,08,19,00,30,17.40
2014,08,19,00,31,17.40
2014,08,19,00,32,17.30
2014,08,19,00,33,17.30
2014,08,19,00,34,17.30
2014,08,19,00,35,17.30
2014,08,19,00,36,17.30
2014,08,19,00,37,17.30
2014,08,19,00,38,17.30
2014,08,19,00,39,17.30
2014,08,19,00,40,17.30
2014,08,19,00,41,17.30
2014,08,19,00,42,17.30
2014,08,19,00,43,17.30
2014,08,19,00,44,17.30
2014,08,19,00,45,17.30
2014,08,19,00,46,17.30
2014,08,19,00,47,17.30
2014,08,19,00,48,17.30
2014,08,19,00,49,17.30
2014,08,19,00,50,17.30
2014,08,19,00,51,17.30
2014,08,19,00,52,17.30
2014,08,19,00,53,17.30
2014,08,19,00,54,17.30
2014,08,19,00,55,17.30
2014,08,19,00,56,17.30
2014,08,19,00,57,17.30
2014,08,19,00,58,17.30
2014,08,19,00,59,17.20
2014,08,19,01,00,17.20
2014,08,19,01,01,17.20
2014,08,19,01,02,17.20
2014,08,19,01,03,17.20
2014,08,19,01,04,17.20
2014,08,19,01,05,17.20
2014,08,19,01,06,17.30
2014,08,19,01,07,17.30
2014,08,19,01,08,17.30
2014,08,19,01,09,17.30
2014,08,19,01,10,17.30
2014,08,19,01,11,17.30
2014,08,19,01,12,17.30
2014,08,19,01,13,17.30
2014,08,19,01,14,17.30
2014,08,19,01,15,17.40
2014,08,19,01,16,17.40
2014,08,19,01,17,17.40
2014,08,19,01,18,17.40
2014,08,19,01,19,17.40
2014,08,19,01,20,17.40
2014,08,19,01,21,17.50
2014,08,19,01,22,17.50
2014,08,19,01,23,17.50
2014,08,19,01,24,17.50
2014,08,19,01,25,17.50
2014,08,19,01,26,17.50
2014,08,19,01,27,17.60
2014,08,19,01,28,17.60
2014,08,19,01,29,17.60
2014,08,19,01,30,17.60
2014,08,19,01,31,17.60
2014,08,19,01,32,17.60
2014,08,19,01,33,17.60
2014,08,19,01,34,17.60
2014,08,19,01,35,17.60
2014,08,19,01,36,17.60
2014,08,19,01,37,17.60
2014,08,19,01,38,17.60
2014,08,19,01,39,17.60
2014,08,19,01,40,17.60
2014,08,19,01,41,17.60
2014,08,19,01,42,17.60
2014,08,19,01,43,17.60
2014,08,19,01,44,17.60
2014,08,19,01,45,17.60
2014,08,19,01,46,17.60
2014,08,19,01,47,17.60
2014,08,19,01,48,17.60
2014,08,19,01,49,17.60
2014,08,19,01,50,17.60
2014,08,19,01,51,17.60
2014,08,19,01,52,17.60
2014,08,19,01,53,17.60
2014,08,19,01,54,17.60
2014,08,19,01,55,17.60
2014,08,19,01,56,17.60
2014,08,19,01,57,17.60
2014,08,19,01,58,17.60
2014,08,19,01,59,17.60
2014,08,19,02,00,17.60
2014,08,19,02,01,17.60
2014,08,19,02,02,17.50
2014,08,19,02,03,17.50
2014,08,19,02,04,17.50
2014,08,19,02,05,17.50
2014,08,19,02,06,17.50
2014,08,19,02,07,17.50
2014,08,19,02,08,17.50
2014,08,19,02,09,17.50
2014,08,19,02,10,17.50
2014,08,19,02,11,17.50
2014,08,19,02,12,17.50
2014,08,19,02,13,17.40
2014,08,19,02,14,17.40
2014,08,19,02,15,17.40
2014,08,19,02,16,17.40
2014,08,19,02,17,17.40
2014,08,19,02,18,17.40
2014,08,19,02,19,17.30
2014,08,19,02,20,17.30
2014,08,19,02,21,17.30
2014,08,19,02,22,17.30
2014,08,19,02,23,17.30
2014,08,19,02,24,17.30
2014,08,19,02,25,17.20
2014,08,19,02,26,17.20
2014,08,19,02,27,17.20
2014,08,19,02,28,17.20
2014,08,19,02,29,17.20
2014,08,19,02,30,17.20
2014,08,19,02,31,17.20
2014,08,19,02,32,17.20
2014,08,19,02,33,17.20
2014,08,19,02,34,17.20
2014,08,19,02,35,17.20
2014,08,19,02,36,17.20
2014,08,19,02,37,17.20
2014,08,19,02,38,17.20
2014,08,19,02,39,17.10
2014,08,19,02,40,17.10
2014,08,19,02,41,17.10
2014,08,19,02,42,17.10
2014,08,19,02,43,17.10
2014,08,19,02,44,17.10
2014,08,19,02,45,17.10
2014,08,19,02,46,17.10
2014,08,19,02,47,17.10
2014,08,19,02,48,17.00
2014,08,19,02,49,17.00
2014,08,19,02,50,17.00
2014,08,19,02,51,17.00
2014,08,19,02,52,17.00
2014,08,19,02,53,17.00
2014,08,19,02,54,17.00
2014,08,19,02,55,17.00
2014,08,19,02,56,17.00
2014,08,19,02,57,17.00
2014,08,19,02,58,17.00
2014,08,19,02,59,17.00
2014,08,19,03,00,17.00
2014,08,19,03,01,17.00
2014,08,19,03,02,17.00
2014,08,19,03,03,17.00
2014,08,19,03,04,17.00
2014,08,19,03,05,17.00
2014,08,19,03,06,16.90
2014,08,19,03,07,16.90
2014,08,19,03,08,16.90
2014,08,19,03,09,16.90
2014,08,19,03,10,16.90
2014,08,19,03,11,16.90
2014,08,19,03,12,16.90
2014,08,19,03,13,16.90
2014,08,19,03,14,16.90
2014,08,19,03,15,16.90
2014,08,19,03,16,16.80
2014,08,19,03,17,16.80
2014,08,19,03,18,16.80
2014,08,19,03,19,16.80
2014,08,19,03,20,16.80
2014,08,19,03,21,16.80
2014,08,19,03,22,16.70
2014,08,19,03,23,16.70
2014,08,19,03,24,16.70
2014,08,19,03,25,16.70
2014,08,19,03,26,16.70
2014,08,19,03,27,16.70
2014,08,19,03,28,16.70
2014,08,19,03,29,16.60
2014,08,19,03,30,16.60
2014,08,19,03,31,16.60
2014,08,19,03,32,16.60
2014,08,19,03,33,16.60
2014,08,19,03,34,16.50
2014,08,19,03,35,16.50
2014,08,19,03,36,16.40
2014,08,19,03,37,16.40
2014,08,19,03,38,16.40
2014,08,19,03,39,16.40
2014,08,19,03,40,16.30
2014,08,19,03,41,16.30
2014,08,19,03,42,16.20
2014,08,19,03,43,16.20
2014,08,19,03,44,16.10
2014,08,19,03,45,16.10
2014,08,19,03,46,16.00
2014,08,19,03,47,16.00
2014,08,19,03,48,15.90
2014,08,19,03,49,15.90
2014,08,19,03,50,15.80
2014,08,19,03,51,15.80
2014,08,19,03,52,15.80
2014,08,19,03,53,15.70
2014,08,19,03,54,15.70
2014,08,19,03,55,15.60
2014,08,19,03,56,15.60
2014,08,19,03,57,15.60
2014,08,19,03,58,15.50
2014,08,19,03,59,15.40
2014,08,19,04,00,15.40
2014,08,19,04,01,15.40
2014,08,19,04,02,15.40
2014,08,19,04,03,15.40
2014,08,19,04,04,15.40
2014,08,19,04,05,15.30
2014,08,19,04,06,15.30
2014,08,19,04,07,15.30
2014,08,19,04,08,15.30
2014,08,19,04,09,15.30
2014,08,19,04,10,15.30
2014,08,19,04,11,15.30
2014,08,19,04,12,15.30
2014,08,19,04,13,15.30
2014,08,19,04,14,15.30
2014,08,19,04,15,15.30
2014,08,19,04,16,15.30
2014,08,19,04,17,15.20
2014,08,19,04,18,15.20
2014,08,19,04,19,15.20
2014,08,19,04,20,15.20
2014,08,19,04,21,15.10
2014,08,19,04,22,15.10
2014,08,19,04,23,15.10
2014,08,19,04,24,15.10
2014,08,19,04,25,15.10
2014,08,19,04,26,15.10
2014,08,19,04,27,15.10
2014,08,19,04,28,15.00
2014,08,19,04,29,15.00
2014,08,19,04,30,15.00
2014,08,19,04,31,15.00
2014,08,19,04,32,15.00
2014,08,19,04,33,15.00
2014,08,19,04,34,14.90
2014,08,19,04,35,14.90
2014,08,19,04,36,14.90
2014,08,19,04,37,14.90
2014,08,19,04,38,14.90
2014,08,19,04,39,14.90
2014,08,19,04,40,14.90
2014,08,19,04,41,14.90
2014,08,19,04,42,14.90
2014,08,19,04,43,14.90
2014,08,19,04,44,14.80
2014,08,19,04,45,14.80
2014,08,19,04,46,14.80
2014,08,19,04,47,14.80
2014,08,19,04,48,14.70
2014,08,19,04,49,14.70
2014,08,19,04,50,14.70
2014,08,19,04,51,14.60
2014,08,19,04,52,14.60
2014,08,19,04,53,14.60
2014,08,19,04,54,14.60
2014,08,19,04,55,14.60
2014,08,19,04,56,14.60
2014,08,19,04,57,14.60
2014,08,19,04,58,14.60
2014,08,19,04,59,14.60
2014,08,19,05,00,14.60
2014,08,19,05,01,14.60
2014,08,19,05,02,14.60
2014,08,19,05,03,14.60
2014,08,19,05,04,14.60
2014,08,19,05,05,14.60
2014,08,19,05,06,14.60
2014,08,19,05,07,14.60
2014,08,19,05,08,14.50
2014,08,19,05,09,14.50
2014,08,19,05,10,14.50
2014,08,19,05,11,14.50
2014,08,19,05,12,14.50
2014,08,19,05,13,14.40
2014,08,19,05,14,14.40
2014,08,19,05,15,14.40
2014,08,19,05,16,14.40
2014,08,19,05,17,14.50
2014,08,19,05,18,14.50
2014,08,19,05,19,14.60
2014,08,19,05,20,14.60
2014,08,19,05,21,14.60
2014,08,19,05,22,14.60
2014,08,19,05,23,14.60
2014,08,19,05,24,14.60
2014,08,19,05,25,14.50
2014,08,19,05,26,14.60
2014,08,19,05,27,14.60
2014,08,19,05,28,14.60
2014,08,19,05,29,14.60
2014,08,19,05,30,14.60
2014,08,19,05,31,14.50
2014,08,19,05,32,14.50
2014,08,19,05,33,14.50
2014,08,19,05,34,14.50
2014,08,19,05,35,14.50
2014,08,19,05,36,14.60
2014,08,19,05,37,14.60
2014,08,19,05,38,14.60
2014,08,19,05,39,14.60
2014,08,19,05,40,14.60
2014,08,19,05,41,14.60
2014,08,19,05,42,14.60
2014,08,19,05,43,14.60
2014,08,19,05,44,14.50
2014,08,19,05,45,14.50
2014,08,19,05,46,14.50
2014,08,19,05,47,14.50
2014,08,19,05,48,14.50
2014,08,19,05,49,14.50
2014,08,19,05,50,14.50
2014,08,19,05,51,14.50
2014,08,19,05,52,14.50
2014,08,19,05,53,14.40
2014,08,19,05,54,14.40
2014,08,19,05,55,14.40
2014,08,19,05,56,14.40
2014,08,19,05,57,14.40
2014,08,19,05,58,14.40
2014,08,19,05,59,14.40
2014,08,19,06,00,14.40
2014,08,19,06,01,14.40
2014,08,19,06,02,14.40
2014,08,19,06,03,14.40
2014,08,19,06,04,14.40
2014,08,19,06,05,14.40
2014,08,19,06,06,14.40
2014,08,19,06,07,14.40
2014,08,19,06,08,14.40
2014,08,19,06,09,14.40
2014,08,19,06,10,14.40
2014,08,19,06,11,14.40
2014,08,19,06,12,14.40
2014,08,19,06,13,14.40
2014,08,19,06,14,14.40
2014,08,19,06,15,14.40
2014,08,19,06,16,14.40
2014,08,19,06,17,14.40
2014,08,19,06,18,14.40
2014,08,19,06,19,14.40
2014,08,19,06,20,14.40
2014,08,19,06,21,14.40
2014,08,19,06,22,14.40
2014,08,19,06,23,14.50
2014,08,19,06,24,14.50
2014,08,19,06,25,14.50
2014,08,19,06,26,14.50
2014,08,19,06,27,14.50
2014,08,19,06,28,14.50
2014,08,19,06,29,14.50
2014,08,19,06,30,14.60
2014,08,19,06,31,14.60
2014,08,19,06,32,14.60
2014,08,19,06,33,14.60
2014,08,19,06,34,14.60
2014,08,19,06,35,14.60
2014,08,19,06,36,14.60
2014,08,19,06,37,14.60
2014,08,19,06,38,14.60
2014,08,19,06,39,14.60
2014,08,19,06,40,14.60
2014,08,19,06,41,14.60
2014,08,19,06,42,14.60
2014,08,19,06,43,14.60
2014,08,19,06,44,14.60
2014,08,19,06,45,14.60
2014,08,19,06,46,14.60
2014,08,19,06,47,14.70
2014,08,19,06,48,14.70
2014,08,19,06,49,14.70
2014,08,19,06,50,14.70
2014,08,19,06,51,14.70
2014,08,19,06,52,14.70
2014,08,19,06,53,14.70
2014,08,19,06,54,14.70
2014,08,19,06,55,14.70
2014,08,19,06,56,14.70
2014,08,19,06,57,14.70
2014,08,19,06,58,14.70
2014,08,19,06,59,14.70
2014,08,19,07,00,14.70
2014,08,19,07,01,14.70
2014,08,19,07,02,14.70
2014,08,19,07,03,14.70
2014,08,19,07,04,14.70
2014,08,19,07,05,14.60
2014,08,19,07,06,14.60
2014,08,19,07,07,14.60
2014,08,19,07,08,14.60
2014,08,19,07,09,14.70
2014,08,19,07,10,14.70
2014,08,19,07,11,14.70
2014,08,19,07,12,14.70
2014,08,19,07,13,14.70
2014,08,19,07,14,14.70
2014,08,19,07,15,14.70
2014,08,19,07,16,14.70
2014,08,19,07,17,14.70
2014,08,19,07,18,14.70
2014,08,19,07,19,14.70
2014,08,19,07,20,14.70
2014,08,19,07,21,14.70
2014,08,19,07,22,14.80
2014,08,19,07,23,14.80
2014,08,19,07,24,14.80
2014,08,19,07,25,14.80
2014,08,19,07,26,14.80
2014,08,19,07,27,14.80
2014,08,19,07,28,14.80
2014,08,19,07,29,14.80
2014,08,19,07,30,14.90
2014,08,19,07,31,14.90
2014,08,19,07,32,14.90
2014,08,19,07,33,14.90
2014,08,19,07,34,14.90
2014,08,19,07,35,14.90
2014,08,19,07,36,14.90
2014,08,19,07,37,15.00
2014,08,19,07,38,15.00
2014,08,19,07,39,15.00
2014,08,19,07,40,15.10
2014,08,19,07,41,15.10
2014,08,19,07,42,15.10
2014,08,19,07,43,15.10
2014,08,19,07,44,15.20
2014,08,19,07,45,15.20
2014,08,19,07,46,15.20
2014,08,19,07,47,15.20
2014,08,19,07,48,15.20
2014,08,19,07,49,15.20
2014,08,19,07,50,15.20
2014,08,19,07,51,15.20
2014,08,19,07,52,15.20
2014,08,19,07,53,15.20
2014,08,19,07,54,15.20
2014,08,19,07,55,15.20
2014,08,19,07,56,15.20
2014,08,19,07,57,15.20
2014,08,19,07,58,15.30
2014,08,19,07,59,15.30
2014,08,19,08,00,15.30
2014,08,19,08,01,15.30
2014,08,19,08,02,15.30
2014,08,19,08,03,15.30
2014,08,19,08,04,15.30
2014,08,19,08,05,15.30
2014,08,19,08,06,15.40
2014,08,19,08,07,15.40
2014,08,19,08,08,15.40
2014,08,19,08,09,15.40
2014,08,19,08,10,15.50
2014,08,19,08,11,15.50
2014,08,19,08,12,15.60
2014,08,19,08,13,15.60
2014,08,19,08,14,15.60
2014,08,19,08,15,15.70
2014,08,19,08,16,15.70
2014,08,19,08,17,15.70
2014,08,19,08,18,15.80
2014,08,19,08,19,15.80
2014,08,19,08,20,15.80
2014,08,19,08,21,15.90
2014,08,19,08,22,15.90
2014,08,19,08,23,16.00
2014,08,19,08,24,16.00
2014,08,19,08,25,16.10
2014,08,19,08,26,16.10
2014,08,19,08,27,16.10
2014,08,19,08,28,16.20
2014,08,19,08,29,16.20
2014,08,19,08,30,16.30
2014,08,19,08,31,16.30
2014,08,19,08,32,16.30
2014,08,19,08,33,16.40
2014,08,19,08,34,16.40
2014,08,19,08,35,16.50
2014,08,19,08,36,16.50
2014,08,19,08,37,16.60
2014,08,19,08,38,16.60
2014,08,19,08,39,16.50
2014,08,19,08,40,16.50
2014,08,19,08,41,16.50
2014,08,19,08,42,16.50
2014,08,19,08,43,16.40
2014,08,19,08,44,16.50
2014,08,19,08,45,16.50
2014,08,19,08,46,16.50
2014,08,19,08,47,16.60
2014,08,19,08,48,16.60
2014,08,19,08,49,16.70
2014,08,19,08,50,16.70
2014,08,19,08,51,16.80
2014,08,19,08,52,16.80
2014,08,19,08,53,16.90
2014,08,19,08,54,17.00
2014,08,19,08,55,17.10
2014,08,19,08,56,17.20
2014,08,19,08,57,17.20
2014,08,19,08,58,17.30
2014,08,19,08,59,17.40
2014,08,19,09,00,17.40
2014,08,19,09,01,17.50
2014,08,19,09,02,17.60
2014,08,19,09,03,17.60
2014,08,19,09,04,17.70
2014,08,19,09,05,17.70
2014,08,19,09,06,17.80
2014,08,19,09,07,17.90
2014,08,19,09,08,17.90
2014,08,19,09,09,18.00
2014,08,19,09,10,18.00
2014,08,19,09,11,18.10
2014,08,19,09,12,18.10
2014,08,19,09,13,18.20
2014,08,19,09,14,18.30
2014,08,19,09,15,18.30
2014,08,19,09,16,18.40
2014,08,19,09,17,18.40
2014,08,19,09,18,18.50
2014,08,19,09,19,18.50
2014,08,19,09,20,18.60
2014,08,19,09,21,18.60
2014,08,19,09,22,18.60
2014,08,19,09,23,18.60
2014,08,19,09,24,18.50
2014,08,19,09,25,18.50
2014,08,19,09,26,18.40
2014,08,19,09,27,18.40
2014,08,19,09,28,18.30
2014,08,19,09,29,18.20
2014,08,19,09,30,18.10
2014,08,19,09,31,18.00
2014,08,19,09,32,17.90
2014,08,19,09,33,17.90
2014,08,19,09,34,17.80
2014,08,19,09,35,17.80
2014,08,19,09,36,17.80
2014,08,19,09,37,17.90
2014,08,19,09,38,17.90
2014,08,19,09,39,17.90
2014,08,19,09,40,17.90
2014,08,19,09,41,18.00
2014,08,19,09,42,18.00
2014,08,19,09,43,18.10
2014,08,19,09,44,18.10
2014,08,19,09,45,18.10
2014,08,19,09,46,18.20
2014,08,19,09,47,18.20
2014,08,19,09,48,18.30
2014,08,19,09,49,18.30
2014,08,19,09,50,18.30
2014,08,19,09,51,18.30
2014,08,19,09,52,18.30
2014,08,19,09,53,18.30
2014,08,19,09,54,18.30
2014,08,19,09,55,18.30
2014,08,19,09,56,18.30
2014,08,19,09,57,18.30
2014,08,19,09,58,18.30
2014,08,19,09,59,18.40
2014,08,19,10,00,18.40
2014,08,19,10,01,18.50
2014,08,19,10,02,18.60
2014,08,19,10,03,18.70
2014,08,19,10,04,18.70
2014,08,19,10,05,18.80
2014,08,19,10,06,18.90
2014,08,19,10,07,19.00
2014,08,19,10,08,19.10
2014,08,19,10,09,19.10
2014,08,19,10,10,19.20
2014,08,19,10,11,19.30
2014,08,19,10,12,19.40
2014,08,19,10,13,19.50
2014,08,19,10,14,19.60
2014,08,19,10,15,19.70
2014,08,19,10,16,19.70
2014,08,19,10,17,19.80
2014,08,19,10,18,19.90
2014,08,19,10,19,20.00
2014,08,19,10,20,20.10
2014,08,19,10,21,20.20
2014,08,19,10,22,20.30
2014,08,19,10,23,20.40
2014,08,19,10,24,20.40
2014,08,19,10,25,20.50
2014,08,19,10,26,20.60
2014,08,19,10,27,20.60
2014,08,19,10,28,20.70
2014,08,19,10,29,20.80
2014,08,19,10,30,20.90
2014,08,19,10,31,20.90
2014,08,19,10,32,21.00
2014,08,19,10,33,20.90
2014,08,19,10,34,20.90
2014,08,19,10,35,20.90
2014,08,19,10,36,20.90
2014,08,19,10,37,20.80
2014,08,19,10,38,20.80
2014,08,19,10,39,20.70
2014,08,19,10,40,20.60
2014,08,19,10,41,20.60
2014,08,19,10,42,20.50
2014,08,19,10,43,20.40
2014,08,19,10,44,20.30
2014,08,19,10,45,20.30
2014,08,19,10,46,20.20
2014,08,19,10,47,20.20
2014,08,19,10,48,20.20
2014,08,19,10,49,20.10
2014,08,19,10,50,20.10
2014,08,19,10,51,20.00
2014,08,19,10,52,20.00
2014,08,19,10,53,19.90
2014,08,19,10,54,19.80
2014,08,19,10,55,19.70
2014,08,19,10,56,19.60
2014,08,19,10,57,19.60
2014,08,19,10,58,19.50
2014,08,19,10,59,19.40
2014,08,19,11,00,19.40
2014,08,19,11,01,19.30
2014,08,19,11,02,19.30
2014,08,19,11,03,19.30
2014,08,19,11,04,19.30
2014,08,19,11,05,19.30
2014,08,19,11,06,19.30
2014,08,19,11,07,19.30
2014,08,19,11,08,19.30
2014,08,19,11,09,19.30
2014,08,19,11,10,19.30
2014,08,19,11,11,19.30
2014,08,19,11,12,19.40
2014,08,19,11,13,19.50
2014,08,19,11,14,19.50
2014,08,19,11,15,19.60
2014,08,19,11,16,19.70
2014,08,19,11,17,19.80
2014,08,19,11,18,19.90
2014,08,19,11,19,20.00
2014,08,19,11,20,20.10
2014,08,19,11,21,20.20
2014,08,19,11,22,20.30
2014,08,19,11,23,20.30
2014,08,19,11,24,20.40
2014,08,19,11,25,20.40
2014,08,19,11,26,20.40
2014,08,19,11,27,20.40
2014,08,19,11,28,20.40
2014,08,19,11,29,20.40
2014,08,19,11,30,20.40
2014,08,19,11,31,20.30
2014,08,19,11,32,20.30
2014,08,19,11,33,20.20
2014,08,19,11,34,20.20
2014,08,19,11,35,20.20
2014,08,19,11,36,20.20
2014,08,19,11,37,20.20
2014,08,19,11,38,20.30
2014,08,19,11,39,20.40
2014,08,19,11,40,20.50
2014,08,19,11,41,20.60
2014,08,19,11,42,20.70
2014,08,19,11,43,20.70
2014,08,19,11,44,20.70
2014,08,19,11,45,20.80
2014,08,19,11,46,20.80
2014,08,19,11,47,20.80
2014,08,19,11,48,20.70
2014,08,19,11,49,20.70
2014,08,19,11,50,20.70
2014,08,19,11,51,20.70
2014,08,19,11,52,20.60
2014,08,19,11,53,20.60
2014,08,19,11,54,20.70
2014,08,19,11,55,20.70
2014,08,19,11,56,20.70
2014,08,19,11,57,20.70
2014,08,19,11,58,20.70
2014,08,19,11,59,20.70
2014,08,19,12,00,20.80
2014,08,19,12,01,20.80
2014,08,19,12,02,20.80
2014,08,19,12,03,20.90
2014,08,19,12,04,20.90
2014,08,19,12,05,20.90
2014,08,19,12,06,20.80
2014,08,19,12,07,20.80
2014,08,19,12,08,20.80
2014,08,19,12,09,20.90
2014,08,19,12,10,20.90
2014,08,19,12,11,21.00
2014,08,19,12,12,21.10
2014,08,19,12,13,21.20
2014,08,19,12,14,21.20
2014,08,19,12,15,21.20
2014,08,19,12,16,21.20
2014,08,19,12,17,21.30
2014,08,19,12,18,21.30
2014,08,19,12,19,21.40
2014,08,19,12,20,21.50
2014,08,19,12,21,21.50
2014,08,19,12,22,21.60
2014,08,19,12,23,21.60
2014,08,19,12,24,21.70
2014,08,19,12,25,21.70
2014,08,19,12,26,21.70
2014,08,19,12,27,21.80
2014,08,19,12,28,21.80
2014,08,19,12,29,21.80
2014,08,19,12,30,21.90
2014,08,19,12,31,22.00
2014,08,19,12,32,22.10
2014,08,19,12,33,22.20
2014,08,19,12,34,22.20
2014,08,19,12,35,22.10
2014,08,19,12,36,22.00
2014,08,19,12,37,22.00
2014,08,19,12,38,21.90
2014,08,19,12,39,21.90
2014,08,19,12,40,21.80
2014,08,19,12,41,21.70
2014,08,19,12,42,21.60
2014,08,19,12,43,21.60
2014,08,19,12,44,21.60
2014,08,19,12,45,21.60
2014,08,19,12,46,21.60
2014,08,19,12,47,21.60
2014,08,19,12,48,21.60
2014,08,19,12,49,21.60
2014,08,19,12,50,21.60
2014,08,19,12,51,21.60
2014,08,19,12,52,21.70
2014,08,19,12,53,21.70
2014,08,19,12,54,21.80
2014,08,19,12,55,21.80
2014,08,19,12,56,21.90
2014,08,19,12,57,22.00
2014,08,19,12,58,22.00
2014,08,19,12,59,22.10
2014,08,19,13,00,22.10
2014,08,19,13,01,22.10
2014,08,19,13,02,22.00
2014,08,19,13,03,22.00
2014,08,19,13,04,21.90
2014,08,19,13,05,21.90
2014,08,19,13,06,21.90
2014,08,19,13,07,22.00
2014,08,19,13,08,22.10
2014,08,19,13,09,22.10
2014,08,19,13,10,22.20
2014,08,19,13,11,22.20
2014,08,19,13,12,22.30
2014,08,19,13,13,22.30
2014,08,19,13,14,22.40
2014,08,19,13,15,22.50
2014,08,19,13,16,22.60
2014,08,19,13,17,22.60
2014,08,19,13,18,22.70
2014,08,19,13,19,22.80
2014,08,19,13,20,22.90
2014,08,19,13,21,22.90
2014,08,19,13,22,22.90
2014,08,19,13,23,22.90
2014,08,19,13,24,22.90
2014,08,19,13,25,22.90
2014,08,19,13,26,22.90
2014,08,19,13,27,22.90
2014,08,19,13,28,22.90
2014,08,19,13,29,22.90
2014,08,19,13,30,22.90
2014,08,19,13,31,22.80
2014,08,19,13,32,22.80
2014,08,19,13,33,22.80
2014,08,19,13,34,22.80
2014,08,19,13,35,22.80
2014,08,19,13,36,22.80
2014,08,19,13,37,22.80
2014,08,19,13,38,22.80
2014,08,19,13,39,22.80
2014,08,19,13,40,22.80
2014,08,19,13,41,22.90
2014,08,19,13,42,22.90
2014,08,19,13,43,22.90
2014,08,19,13,44,22.90
2014,08,19,13,45,22.90
2014,08,19,13,46,22.90
2014,08,19,13,47,22.90
2014,08,19,13,48,22.90
2014,08,19,13,49,22.80
2014,08,19,13,50,22.80
2014,08,19,13,51,22.80
2014,08,19,13,52,22.70
2014,08,19,13,53,22.80
2014,08,19,13,54,22.80
2014,08,19,13,55,22.80
2014,08,19,13,56,22.80
2014,08,19,13,57,22.80
2014,08,19,13,58,22.80
2014,08,19,13,59,22.80
2014,08,19,14,00,22.80
2014,08,19,14,01,22.80
2014,08,19,14,02,22.80
2014,08,19,14,03,22.80
2014,08,19,14,04,22.80
2014,08,19,14,05,22.80
2014,08,19,14,06,22.80
2014,08,19,14,07,22.80
2014,08,19,14,08,22.80
2014,08,19,14,09,22.90
2014,08,19,14,10,22.90
2014,08,19,14,11,23.00
2014,08,19,14,12,23.10
2014,08,19,14,13,23.20
2014,08,19,14,14,23.30
2014,08,19,14,15,23.30
2014,08,19,14,16,23.40
2014,08,19,14,17,23.50
2014,08,19,14,18,23.50
2014,08,19,14,19,23.60
2014,08,19,14,20,23.60
2014,08,19,14,21,23.70
2014,08,19,14,22,23.70
2014,08,19,14,23,23.80
2014,08,19,14,24,23.80
2014,08,19,14,25,23.90
2014,08,19,14,26,23.90
2014,08,19,14,27,24.00
2014,08,19,14,28,24.00
2014,08,19,14,29,24.00
2014,08,19,14,30,24.10
2014,08,19,14,31,24.10
2014,08,19,14,32,24.10
2014,08,19,14,33,24.10
2014,08,19,14,34,24.20
2014,08,19,14,35,24.20
2014,08,19,14,36,24.30
2014,08,19,14,37,24.30
2014,08,19,14,38,24.30
2014,08,19,14,39,24.30
2014,08,19,14,40,24.30
2014,08,19,14,41,24.30
2014,08,19,14,42,24.30
2014,08,19,14,43,24.40
2014,08,19,14,44,24.40
2014,08,19,14,45,24.40
2014,08,19,14,46,24.40
2014,08,19,14,47,24.30
2014,08,19,14,48,24.30
2014,08,19,14,49,24.30
2014,08,19,14,50,24.30
2014,08,19,14,51,24.30
2014,08,19,14,52,24.30
2014,08,19,14,53,24.30
2014,08,19,14,54,24.30
2014,08,19,14,55,24.30
2014,08,19,14,56,24.20
2014,08,19,14,57,24.10
2014,08,19,14,58,24.10
2014,08,19,14,59,24.00
2014,08,19,15,00,24.00
2014,08,19,15,01,23.90
2014,08,19,15,02,24.00
2014,08,19,15,03,24.00
2014,08,19,15,04,24.00
2014,08,19,15,05,24.10
2014,08,19,15,06,24.10
2014,08,19,15,07,24.10
2014,08,19,15,08,24.10
2014,08,19,15,09,24.10
2014,08,19,15,10,24.10
2014,08,19,15,11,24.10
2014,08,19,15,12,24.00
2014,08,19,15,13,24.00
2014,08,19,15,14,24.10
2014,08,19,15,15,24.10
2014,08,19,15,16,24.20
2014,08,19,15,17,24.20
2014,08,19,15,18,24.20
2014,08,19,15,19,24.10
2014,08,19,15,20,24.10
2014,08,19,15,21,24.10
2014,08,19,15,22,24.10
2014,08,19,15,23,24.10
2014,08,19,15,24,24.20
2014,08,19,15,25,24.30
2014,08,19,15,26,24.30
2014,08,19,15,27,24.40
2014,08,19,15,28,24.40
2014,08,19,15,29,24.40
2014,08,19,15,30,24.50
2014,08,19,15,31,24.60
2014,08,19,15,32,24.60
2014,08,19,15,33,24.60
2014,08,19,15,34,24.70
2014,08,19,15,35,24.70
2014,08,19,15,36,24.80
2014,08,19,15,37,24.80
2014,08,19,15,38,24.80
2014,08,19,15,39,24.80
2014,08,19,15,40,24.80
2014,08,19,15,41,24.80
2014,08,19,15,42,24.80
2014,08,19,15,43,24.70
2014,08,19,15,44,24.70
2014,08,19,15,45,24.60
2014,08,19,15,46,24.50
2014,08,19,15,47,24.40
2014,08,19,15,48,24.40
2014,08,19,15,49,24.40
2014,08,19,15,50,24.30
2014,08,19,15,51,24.30
2014,08,19,15,52,24.40
2014,08,19,15,53,24.40
2014,08,19,15,54,24.50
2014,08,19,15,55,24.50
2014,08,19,15,56,24.60
2014,08,19,15,57,24.60
2014,08,19,15,58,24.50
2014,08,19,15,59,24.50
2014,08,19,16,00,24.50
2014,08,19,16,01,24.50
2014,08,19,16,02,24.60
2014,08,19,16,03,24.60
2014,08,19,16,04,24.70
2014,08,19,16,05,24.70
2014,08,19,16,06,24.70
2014,08,19,16,07,24.70
2014,08,19,16,08,24.70
2014,08,19,16,09,24.70
2014,08,19,16,10,24.70
2014,08,19,16,11,24.70
2014,08,19,16,12,24.70
2014,08,19,16,13,24.70
2014,08,19,16,14,24.70
2014,08,19,16,15,24.70
2014,08,19,16,16,24.80
2014,08,19,16,17,24.80
2014,08,19,16,18,24.80
2014,08,19,16,19,24.80
2014,08,19,16,20,24.80
2014,08,19,16,21,24.80
2014,08,19,16,22,24.80
2014,08,19,16,23,24.70
2014,08,19,16,24,24.60
2014,08,19,16,25,24.60
2014,08,19,16,26,24.60
2014,08,19,16,27,24.50
2014,08,19,16,28,24.50
2014,08,19,16,29,24.40
2014,08,19,16,30,24.40
2014,08,19,16,31,24.40
2014,08,19,16,32,24.40
2014,08,19,16,33,24.30
2014,08,19,16,34,24.30
2014,08,19,16,35,24.20
2014,08,19,16,36,24.20
2014,08,19,16,37,24.00
2014,08,19,16,38,24.00
2014,08,19,16,39,23.90
2014,08,19,16,40,23.80
2014,08,19,16,41,23.80
2014,08,19,16,42,23.70
2014,08,19,16,43,23.70
2014,08,19,16,44,23.60
2014,08,19,16,45,23.50
2014,08,19,16,46,23.40
2014,08,19,16,47,23.40
2014,08,19,16,48,23.40
2014,08,19,16,49,23.30
2014,08,19,16,50,23.30
2014,08,19,16,51,23.30
2014,08,19,16,52,23.30
2014,08,19,16,53,23.30
2014,08,19,16,54,23.30
2014,08,19,16,55,23.20
2014,08,19,16,56,23.20
2014,08,19,16,57,23.20
2014,08,19,16,58,23.20
2014,08,19,16,59,23.20
2014,08,19,17,00,23.20
2014,08,19,17,01,23.20
2014,08,19,17,02,23.30
2014,08,19,17,03,23.40
2014,08,19,17,04,23.50
2014,08,19,17,05,23.50
2014,08,19,17,06,23.60
2014,08,19,17,07,23.60
2014,08,19,17,08,23.70
2014,08,19,17,09,23.80
2014,08,19,17,10,23.80
2014,08,19,17,11,23.90
2014,08,19,17,12,24.00
2014,08,19,17,13,24.10
2014,08,19,17,14,24.10
2014,08,19,17,15,24.00
2014,08,19,17,16,23.90
2014,08,19,17,17,23.90
2014,08,19,17,18,23.90
2014,08,19,17,19,23.90